Flag for U.S.A. Weather past 2 weeks in San Diego, California, U.S.A.

Now
71 °F

Overcast.


Feels Like: 73 °F
Forecast: 70 / 76 °F
Wind: 6 mph from Northwest

Location: San Diego - North Island

Current Time: Sep 20, 2014 at 1:07:53 AM

Latest Report: Sep 19, 2014 at 11:52 PM


Visibility: 10 mi

Pressure: 29.90 "Hg

Humidity: 73%

Dew point: 62 °F

Location of San DiegoLocation

Historic Weather in San Diego — Graph

°F

San Diego temperature yesterday

Maximum temperature yesterday: 77 °F (at 12:52 PM)
Minimum temperature yesterday: 69 °F (at 5:52 AM)
Average temperature yesterday: 73 °F

Past Weeks' High & Low Weather Summary

 TemperatureHumidityPressure
High93 °F (Sep 16, 6:52 PM)97% (Sep 14, 10:52 PM)29.91 "Hg (Sep 14, 10:52 PM)
Low69 °F (Sep 5, 1:52 AM)18% (Sep 8, 1:52 PM)29.65 "Hg (Sep 16, 6:52 PM)
Average76 °F74%29.80 "Hg
* Reported Sep 4 11:52 PM — Sep 19 11:52 PM, San Diego, Weather by CustomWeather, © 2014

Note: Actual official high and low records may vary slightly from our data, if they occured in-between our weather recording intervals... More about our weather records

Advertising

San Diego weather history for previous 24 hours

 ConditionsComfort  
Time TempWeatherWind HumidityBarometerVisibility
11:52 PM
Sep 19
71 °FOvercast.6 mph73%29.90 "Hg10 mi
10:52 PM71 °FOvercast.7 mph73%29.89 "Hg10 mi
9:52 PM71 °FPassing clouds.8 mph76%29.88 "Hg10 mi
8:52 PM71 °FPassing clouds.6 mph73%29.87 "Hg10 mi
7:52 PM71 °FPassing clouds.8 mph73%29.85 "Hg10 mi
6:52 PM72 °FPassing clouds.10 mph68%29.84 "Hg10 mi
5:52 PM74 °FPassing clouds.13 mph67%29.83 "Hg10 mi
4:52 PM75 °FPassing clouds.14 mph62%29.83 "Hg10 mi
3:52 PM76 °FPassing clouds.13 mph62%29.83 "Hg10 mi
2:52 PM77 °FPassing clouds.16 mph60%29.83 "Hg10 mi
1:52 PM76 °FPassing clouds.15 mph60%29.85 "Hg10 mi
12:52 PM77 °FPassing clouds.14 mph60%29.86 "Hg10 mi
11:52 AM76 °FScattered clouds.10 mph62%29.88 "Hg10 mi
10:52 AM75 °FPartly sunny.12 mph66%29.90 "Hg10 mi
9:52 AM73 °FBroken clouds.12 mph74%29.91 "Hg10 mi
8:52 AM71 °FPartly sunny.7 mph81%29.90 "Hg10 mi
7:52 AM70 °FFog.9 mph87%29.90 "Hg6 mi
6:52 AM69 °FPassing clouds.5 mph90%29.88 "Hg8 mi
5:52 AM69 °FLight rain. Fog.7 mph93%29.87 "Hg2 mi
4:52 AM70 °FPassing clouds.8 mph87%29.86 "Hg10 mi
3:52 AM72 °FPassing clouds.8 mph81%29.86 "Hg10 mi
2:52 AM72 °FPartly cloudy.5 mph81%29.86 "Hg10 mi
1:52 AM72 °FPassing clouds.5 mph81%29.86 "Hg10 mi
Weather by CustomWeather, © 2014

See weather overviewHow to use our weather pages